Weather History for Rawlins, WY

Change the Weather History Date:

Tuesday, April 23, 2013

  Actual Average Record
Temperature  
Mean Temperature 23 °F 42 °F  
Max Temperature 37 °F 56 °F 78 °F (2012)
Min Temperature 9 °F 28 °F 8 °F (1968)
Degree Days  
Heating Degree Days 42 23  
Month to date heating degree days 756 595  
Since 1 July heating degree days 7349 7567  
Cooling Degree Days 0 0  
Month to date cooling degree days 0 0  
Year to date cooling degree days 0 0  
Moisture  
Dew Point 10 °F    
Average Humidity 59    
Maximum Humidity 88    
Minimum Humidity 29    
Precipitation  
Precipitation T in 0.04 in 0.32 in (2003)
Month to date precipitation 0.55 0.78  
Year to date precipitation 1.23 2.24  
Sea Level Pressure  
Sea Level Pressure 30.23 in    
Wind  
Wind Speed 7 mph (NNW)    
Max Wind Speed 21 mph    
Max Gust Speed 25 mph    
Visibility 9 miles    
Events Snow    
T = Trace of Precipitation, MM = Missing Value Source: NWS Daily Summary

Daily Weather History Graph

Daily Weather History Graph

Search for Another Location

Airport:

Trip Planner

Search our weather history database for the weather conditions in past years. The results will help you decide how hot, cold, wet, or windy it might be!

Date:

Astronomy

Apr. 23, 2013 Rise Set
Actual Time 6:15 AM MDT 7:58 PM MDT
Civil Twilight 5:46 AM MDT 8:28 PM MDT
Nautical Twilight 5:10 AM MDT 9:04 PM MDT
Astronomical Twilight 4:32 AM MDT 9:43 PM MDT
Moon 5:55 PM MDT (4/23) 4:47 AM MDT (4/23)
Length of Visible Light 14h 42m
Length of Day
13h 42m
Waxing Gibbous, 94% of the Moon is Illuminated
Apr 23
Waxing Gibbous
Apr 25
Full
May 2
Last Quarter
May 9
New
May 17
First Quarter

Hourly Weather History & Observations

Time (MDT) Temp. Windchill Dew Point Humidity Pressure Visibility Wind Dir Wind Speed Gust Speed Precip Events Conditions
12:53 AM 14.0 °F 1.2 °F 10.0 °F 84% 30.30 in 8.0 mi NE 10.4 mph - 0.00 in   Overcast
1:20 AM 14.0 °F -0.8 °F 8.6 °F 79% 30.15 in 8.0 mi NE 13.8 mph - 0.00 in Snow Light Snow
1:37 AM 14.0 °F 1.2 °F 8.6 °F 79% 30.15 in 7.0 mi NE 10.4 mph - 0.00 in Snow Light Snow
1:50 AM 14.0 °F 0.5 °F 10.4 °F 86% 30.14 in 8.0 mi NE 11.5 mph - 0.00 in Snow Light Snow
1:53 AM 15.1 °F 1.8 °F 10.0 °F 80% 30.28 in 8.0 mi NE 11.5 mph - 0.00 in Snow Light Snow
2:53 AM 14.0 °F 1.2 °F 9.0 °F 80% 30.29 in 9.0 mi NNE 10.4 mph - 0.00 in   Overcast
3:53 AM 14.0 °F 0.5 °F 9.0 °F 80% 30.27 in 10.0 mi NNE 11.5 mph - 0.00 in   Overcast
4:10 AM 12.2 °F -1.0 °F 8.6 °F 85% 30.13 in 10.0 mi NNE 10.4 mph - N/A   Overcast
4:53 AM 12.0 °F -1.3 °F 7.0 °F 80% 30.29 in 10.0 mi North 10.4 mph - N/A   Mostly Cloudy
5:53 AM 12.0 °F 4.1 °F 7.0 °F 80% 30.31 in 10.0 mi North 4.6 mph - N/A   Overcast
6:13 AM 12.2 °F 4.3 °F 8.6 °F 85% 30.14 in 6.0 mi North 4.6 mph - 0.00 in Snow Light Snow
6:32 AM 12.2 °F 2.9 °F 8.6 °F 85% 30.15 in 5.0 mi NNW 5.8 mph - 0.00 in   Overcast
6:53 AM 10.0 °F 1.8 °F 6.1 °F 84% 30.34 in 9.0 mi North 4.6 mph - 0.00 in   Mostly Cloudy
7:53 AM 15.1 °F - 9.0 °F 77% 30.33 in 10.0 mi Calm Calm - N/A   Clear
8:53 AM 18.0 °F - 10.0 °F 71% 30.33 in 10.0 mi Calm Calm - N/A   Clear
9:53 AM 19.0 °F 13.9 °F 10.9 °F 71% 30.32 in 10.0 mi West 3.5 mph - N/A   Clear
10:53 AM 21.9 °F - 12.0 °F 66% 30.30 in 10.0 mi Calm Calm - N/A   Clear
11:40 AM 23.0 °F 15.8 °F 14.0 °F 68% 30.15 in 10.0 mi West 5.8 mph - N/A   Mostly Cloudy
11:53 AM 25.0 °F - 15.1 °F 66% 30.28 in 10.0 mi Calm Calm - N/A   Mostly Cloudy
12:09 PM 24.8 °F 20.5 °F 12.2 °F 59% 30.14 in 10.0 mi Variable 3.5 mph - N/A   Mostly Cloudy
12:53 PM 28.0 °F 20.0 °F 14.0 °F 56% 30.26 in 10.0 mi WSW 8.1 mph - N/A   Overcast
1:53 PM 30.0 °F 20.5 °F 12.9 °F 49% 30.22 in 10.0 mi WNW 11.5 mph 19.6 mph N/A   Mostly Cloudy
2:53 PM 32.0 °F 22.1 °F 14.0 °F 48% 30.22 in 10.0 mi West 13.8 mph 23.0 mph N/A   Mostly Cloudy
3:53 PM 34.0 °F 23.4 °F 12.0 °F 40% 30.19 in 10.0 mi WNW 17.3 mph 24.2 mph N/A   Partly Cloudy
4:53 PM 36.0 °F 26.0 °F 8.1 °F 31% 30.17 in 10.0 mi West 17.3 mph 23.0 mph N/A   Clear
5:53 PM 36.0 °F 27.1 °F 8.1 °F 31% 30.17 in 10.0 mi West 13.8 mph - N/A   Clear
6:53 PM 36.0 °F 26.7 °F 7.0 °F 30% 30.17 in 10.0 mi West 15.0 mph 21.9 mph N/A   Scattered Clouds
7:53 PM 33.1 °F 26.9 °F 7.0 °F 34% 30.17 in 10.0 mi West 6.9 mph - N/A   Mostly Cloudy
8:53 PM 28.9 °F 21.9 °F 10.9 °F 47% 30.19 in 10.0 mi NNW 6.9 mph - N/A   Clear
9:53 PM 25.0 °F 19.3 °F 16.0 °F 69% 30.24 in 10.0 mi NNW 4.6 mph - N/A   Clear
10:53 PM 25.0 °F - 15.1 °F 66% 30.22 in 10.0 mi Calm Calm - N/A   Clear
11:53 PM 25.0 °F 20.7 °F 14.0 °F 63% 30.21 in 10.0 mi NE 3.5 mph - N/A   Clear